Terminal Aerodrome Forecast
Issued by NWS Oklahoma City, OK

Home | Current Version | Previous Version | Text Only | Print | Product List | Glossary On
Versions: 1 2 3 4 5 6 7 8 9 10 11 12 13 14 15 16 17 18 19 20 21 22 23
017
FTUS44 KOUN 102325
TAFOUN
TAF
KOUN 102325Z 1100/1124 24012KT P6SM SKC
     FM110700 35012KT P6SM FEW250
     FM112000 01008KT P6SM FEW250=

USA.gov is the U.S. government's official web portal to all federal, state and local government web resources and services.